Weather History for KDUX - March, 2013

Change the Weather History Date:

Saturday, March 9, 2013

  Actual Average (KBGD) Record (KBGD)
Temperature  
Mean Temperature 46 °F 47 °F  
Max Temperature 58 °F 60 °F 84 °F (1989)
Min Temperature 33 °F 34 °F 12 °F (1998)
Degree Days  
Heating Degree Days 20 18  
Month to date heating degree days 170  
Since 1 July heating degree days 3163  
Cooling Degree Days 0 0  
Month to date cooling degree days 0  
Year to date cooling degree days 0  
Moisture  
Dew Point 30 °F    
Average Humidity 59    
Maximum Humidity 93    
Minimum Humidity 14    
Precipitation  
Precipitation 0.00 in 0.05 in 0.81 in (1974)
Month to date precipitation 0.38  
Year to date precipitation 1.59  
Snow  
Snow 0.00 in - 1.00 in (1994)
Month to date snowfall  
Since 1 July snowfall  
Snow Depth -    
Sea Level Pressure  
Sea Level Pressure 29.71 in    
Wind  
Wind Speed 18 mph (WSW)    
Max Wind Speed 43 mph    
Max Gust Speed 55 mph    
Visibility 10 miles    
Events Rain , Snow    
T = Trace of Precipitation, MM = Missing Value Source: NWS Daily Summary

Daily Weather History Graph

Daily Weather History Graph

Search for Another Location

Airport or City:

Trip Planner

Search our weather history database for the weather conditions in past years. The results will help you decide how hot, cold, wet, or windy it might be!

Date:

Astronomy

Mar. 09, 2013 Rise Set
Actual Time 7:06 AM CST 6:50 PM CST
Civil Twilight 6:41 AM CST 7:16 PM CST
Nautical Twilight 6:11 AM CST 7:45 PM CST
Astronomical Twilight 5:42 AM CST 8:15 PM CST
Moon 5:28 AM CST (3/9) 4:57 PM CST (3/9)
Length of Visible Light 12h 34m
Length of Day
11h 43m
Waning Crescent, 5% of the Moon is Illuminated
Mar 9
Waning Crescent
Mar 11
New
Mar 19
First Quarter
Mar 27
Full
Apr 2
Last Quarter

Hourly Weather History & Observations

Time (CST) Temp. Windchill Dew Point Humidity Pressure Visibility Wind Dir Wind Speed Gust Speed Precip Events Conditions
12:15 AM 50.4 °F - 45.9 °F 85% 29.79 in 10.0 mi SSW 11.5 mph - N/A   Scattered Clouds
12:35 AM 50.9 °F - 46.0 °F 83% 29.78 in 10.0 mi SSW 12.7 mph - N/A   Scattered Clouds
12:55 AM 50.5 °F - 46.4 °F 86% 29.77 in 10.0 mi SSW 11.5 mph - N/A   Scattered Clouds
1:15 AM 50.0 °F - 46.4 °F 87% 29.76 in 10.0 mi South 8.1 mph - N/A   Scattered Clouds
1:35 AM 49.5 °F - 46.6 °F 90% 29.76 in 10.0 mi South 9.2 mph - N/A   Scattered Clouds
1:55 AM 49.8 °F - 46.9 °F 90% 29.74 in 10.0 mi South 10.4 mph - N/A   Clear
2:15 AM 49.6 °F - 46.9 °F 90% 29.75 in 10.0 mi SSW 8.1 mph - N/A   Clear
2:35 AM 49.1 °F - 46.8 °F 92% 29.73 in 10.0 mi South 9.2 mph - N/A   Clear
2:55 AM 49.1 °F - 46.9 °F 92% 29.73 in 10.0 mi SSW 8.1 mph - N/A   Clear
3:15 AM 49.5 °F - 47.3 °F 92% 29.72 in 10.0 mi SSW 10.4 mph - N/A   Clear
3:35 AM 49.1 °F - 46.8 °F 92% 29.72 in 10.0 mi South 8.1 mph - N/A   Clear
3:55 AM 48.7 °F - 46.9 °F 93% 29.71 in 10.0 mi SSW 6.9 mph - N/A   Scattered Clouds
4:15 AM 48.7 °F - 46.9 °F 93% 29.71 in 10.0 mi SSW 6.9 mph - N/A Rain Light Rain
4:35 AM 49.8 °F - 46.4 °F 88% 29.71 in 10.0 mi SW 11.5 mph - N/A   Light Drizzle
4:55 AM 48.7 °F - 43.9 °F 83% 29.71 in 10.0 mi SW 9.2 mph - N/A   Scattered Clouds
5:15 AM 46.9 °F - 42.6 °F 85% 29.71 in 10.0 mi SSW 9.2 mph - N/A   Clear
5:35 AM 45.7 °F 41.0 °F 41.9 °F 87% 29.70 in 10.0 mi South 9.2 mph - N/A   Scattered Clouds
5:55 AM 46.9 °F - 42.1 °F 83% 29.71 in 10.0 mi SSW 12.7 mph - N/A   Mostly Cloudy
6:15 AM 47.1 °F - 41.4 °F 80% 29.71 in 10.0 mi SSW 13.8 mph - N/A   Mostly Cloudy
6:35 AM 47.7 °F - 39.9 °F 75% 29.69 in 10.0 mi SSW 13.8 mph - N/A   Scattered Clouds
6:55 AM 46.8 °F - 38.7 °F 73% 29.69 in 10.0 mi South 16.1 mph - N/A   Scattered Clouds
7:15 AM 45.7 °F 38.6 °F 37.6 °F 73% 29.69 in 10.0 mi SSW 17.3 mph - N/A   Clear
7:35 AM 45.5 °F 38.6 °F 37.4 °F 73% 29.69 in 10.0 mi SSW 16.1 mph - N/A   Clear
7:55 AM 46.8 °F - 36.3 °F 67% 29.69 in 10.0 mi SSW 23.0 mph 27.6 mph N/A   Clear
8:15 AM 48.0 °F - 36.0 °F 63% 29.68 in 10.0 mi SSW 18.4 mph - N/A   Clear
8:35 AM 49.1 °F - 35.6 °F 60% 29.68 in 10.0 mi SW 23.0 mph 27.6 mph N/A   Clear
8:55 AM 50.0 °F - 33.6 °F 53% 29.69 in 10.0 mi SW 26.5 mph 31.1 mph N/A   Clear
9:15 AM 51.6 °F - 31.8 °F 47% 29.68 in 10.0 mi SW 24.2 mph 32.2 mph N/A   Clear
9:35 AM 52.9 °F - 27.7 °F 38% 29.68 in 10.0 mi WSW 24.2 mph 38.0 mph N/A   Clear
9:55 AM 54.3 °F - 26.6 °F 34% 29.68 in 10.0 mi WSW 28.8 mph 36.8 mph N/A   Clear
10:35 AM 55.4 °F - 26.4 °F 33% 29.67 in 10.0 mi SW 26.5 mph 35.7 mph N/A   Clear
10:55 AM 56.3 °F - 23.5 °F 28% 29.67 in 10.0 mi SW 34.5 mph - N/A   Clear
11:15 AM 56.5 °F - 20.8 °F 25% 29.66 in 10.0 mi SW 32.2 mph 38.0 mph N/A   Clear
11:35 AM 57.0 °F - 19.0 °F 23% 29.66 in 10.0 mi SW 33.4 mph 41.4 mph N/A   Clear
11:55 AM 57.2 °F - 18.9 °F 22% 29.65 in 10.0 mi WSW 34.5 mph 42.6 mph N/A   Clear
12:15 PM 57.0 °F - 18.5 °F 22% 29.65 in 10.0 mi WSW 33.4 mph 43.7 mph N/A   Clear
12:35 PM 57.9 °F - 17.1 °F 20% 29.65 in 10.0 mi WSW 34.5 mph 43.7 mph N/A   Clear
12:55 PM 58.6 °F - 18.0 °F 21% 29.64 in 10.0 mi WSW 35.7 mph 41.4 mph N/A   Clear
1:15 PM 57.9 °F - 16.0 °F 19% 29.63 in 10.0 mi WSW 33.4 mph 43.7 mph N/A   Clear
1:35 PM 58.6 °F - 15.8 °F 19% 29.62 in 10.0 mi SW 38.0 mph 43.7 mph N/A   Clear
1:55 PM 58.3 °F - 13.1 °F 17% 29.62 in 10.0 mi WSW 36.8 mph 44.9 mph N/A   Clear
2:15 PM 58.3 °F - 15.1 °F 18% 29.61 in 10.0 mi SW 28.8 mph 43.7 mph N/A   Clear
2:35 PM 58.8 °F - 12.6 °F 16% 29.61 in 10.0 mi SW 32.2 mph 40.3 mph N/A   Clear
3:15 PM 58.3 °F - 9.5 °F 14% 29.61 in 10.0 mi WSW 31.1 mph 40.3 mph N/A   Clear
3:35 PM 57.9 °F - 10.2 °F 15% 29.60 in 10.0 mi SW 28.8 mph 40.3 mph N/A   Clear
3:55 PM 57.4 °F - 7.7 °F 14% 29.61 in 10.0 mi SW 33.4 mph 47.2 mph N/A   Clear
4:35 PM 56.3 °F - 9.5 °F 16% 29.61 in 10.0 mi WSW 31.1 mph 36.8 mph N/A   Clear
4:55 PM 55.9 °F - 8.2 °F 15% 29.62 in 10.0 mi WSW 31.1 mph 39.1 mph N/A   Clear
5:35 PM 54.3 °F - 9.9 °F 17% 29.62 in 10.0 mi WSW 29.9 mph 38.0 mph N/A   Clear
5:55 PM 51.4 °F - 15.8 °F 24% 29.62 in 10.0 mi WSW 19.6 mph 25.3 mph N/A   Clear
6:15 PM 52.7 °F - 15.6 °F 23% 29.64 in 10.0 mi WSW 27.6 mph 36.8 mph N/A   Clear
6:35 PM 45.3 °F 35.1 °F 29.3 °F 54% 29.68 in 10.0 mi NNW 34.5 mph 43.7 mph N/A   Scattered Clouds
6:55 PM 41.5 °F 31.0 °F 29.3 °F 62% 29.71 in 10.0 mi NNW 27.6 mph 36.8 mph N/A   Clear
7:15 PM 39.6 °F 30.0 °F 30.2 °F 69% 29.71 in 10.0 mi NNW 19.6 mph 25.3 mph N/A   Clear
7:35 PM 38.5 °F 28.6 °F 30.4 °F 73% 29.73 in 10.0 mi NW 19.6 mph - N/A   Clear
7:55 PM 37.6 °F 26.9 °F 30.2 °F 75% 29.76 in 10.0 mi NW 21.9 mph 25.3 mph N/A   Clear
8:15 PM 37.2 °F 27.0 °F 29.8 °F 75% 29.77 in 10.0 mi NW 19.6 mph - N/A   Clear
8:35 PM 37.0 °F 25.1 °F 28.4 °F 71% 29.78 in 10.0 mi NW 26.5 mph 31.1 mph N/A   Clear
8:55 PM 36.3 °F 24.9 °F 27.9 °F 71% 29.79 in 10.0 mi NNW 23.0 mph 26.5 mph N/A   Mostly Cloudy
9:15 PM 36.0 °F 24.2 °F 27.5 °F 71% 29.81 in 10.0 mi NW 24.2 mph - N/A   Mostly Cloudy
9:35 PM 35.1 °F 22.7 °F 26.6 °F 71% 29.81 in 10.0 mi NW 25.3 mph 32.2 mph N/A   Scattered Clouds
9:55 PM 34.2 °F 22.6 °F 27.9 °F 78% 29.82 in 10.0 mi NW 20.7 mph 27.6 mph N/A   Scattered Clouds
10:15 PM 35.2 °F 21.8 °F 28.2 °F 76% 29.82 in 10.0 mi NW 31.1 mph 41.4 mph N/A   Mostly Cloudy
10:35 PM 34.9 °F 20.9 °F 28.2 °F 77% 29.83 in 10.0 mi NNW 33.4 mph 41.4 mph N/A   Overcast
10:55 PM 34.0 °F 19.3 °F 28.4 °F 80% 29.83 in 10.0 mi NNW 35.7 mph 46.0 mph N/A   Mostly Cloudy
11:15 PM 33.8 °F 19.6 °F 28.6 °F 81% 29.83 in 10.0 mi NNW 32.2 mph 43.7 mph N/A Snow Light Snow
11:35 PM 33.8 °F 18.8 °F 28.2 °F 80% 29.83 in 10.0 mi NNW 36.8 mph 44.9 mph N/A   Mostly Cloudy
11:55 PM 34.0 °F 18.2 °F 27.5 °F 77% 29.84 in 10.0 mi NNW 42.6 mph 55.2 mph N/A   Scattered Clouds